Weather Roundup
Issued by NWS

Home | Current Version | Previous Version | Graphics & Text | Print | Product List | Glossary Off
Versions: 1 2 3 4 5 6 7 8 9 10 11 12 13 14 15 16 17 18 19 20 21 22 23 24 25 26 27 28 29 30 31 32 33 34 35 36 37 38 39 40 41 42 43 44 45 46 47 48 49 50

554
NZUS93 KARX 200610
HRRWXR

CURRENT HOURLY OBSERVATIONS ACROSS
MUCH OF THE UPPER MISSISSIPPI VALLEY
NATIONAL WEATHER SERVICE LA CROSSE WI
100 AM CDT FRI APR 20 2018


...SOUTHEAST MINNESOTA...


CITY           SKY/WX    TMP DP  RH WIND       PRES   REMARKS
ROCHESTER      FAIR      30  24  78 W8        30.46R WCI  22
ROCHESTER/MAYO FAIR      34  25  71 W3        30.46R
WINONA         FAIR      30  27  86 CALM      30.46R
AUSTIN         FAIR      25  21  86 CALM      30.46S FOG
ALBERT LEA     FAIR      25  19  80 CALM      30.47R
DODGE CENTER   FAIR      28  23  80 SW7       30.46R WCI  21
PRESTON        FAIR      29  22  75 W3        30.46S
OWATONNA       FAIR      30  25  80 CALM      30.47R
FARIBAULT      NOT AVBL
$$

...ELSEWHERE IN MINNESOTA...


CITY           SKY/WX    TMP DP  RH WIND       PRES   REMARKS
MINNEAPOLIS    FAIR      38  24  57 CALM      30.46R
INTNL FALLS    FAIR      26  20  77 CALM      30.38R
DULUTH         FAIR      37  17  44 W8        30.39R WCI  31
RED WING       FAIR      28  19  69 CALM      30.46R
REDWOOD FALLS  CLOUDY    29  23  78 SW5       30.46R WCI  24
MANKATO        FAIR      32  22  66 CALM      30.48R
WORTHINGTON    CLOUDY    27  23  85 SE5       30.46R WCI  22
FAIRMONT       CLOUDY    21  18  88 W3        30.48R
$$

...SOUTHWEST WISCONSIN...


CITY           SKY/WX    TMP DP  RH WIND       PRES   REMARKS
LA CROSSE      FAIR      32  27  81 CALM      30.46S
PRAIRIE DU CHI FAIR      29  25  83 CALM      30.48R
BOSCOBEL       FAIR      27  23  85 CALM      30.48R
LONE ROCK      FAIR      24  23  96 CALM      30.47R
PLATTEVILLE    FAIR      34  27  75 N3        30.46R
FORT MC COY    FAIR      23  21  92 CALM      30.47R
CAMP DOUGLAS   FAIR      24  20  84 CALM      30.44R
MAUSTON-NEW LI FAIR      27  23  84 CALM      30.44R
VIROQUA        FAIR      35  23  61 CALM      30.44S
WIS DELLS      FAIR      28  21  75 CALM      30.44S
$$

...ELSEWHERE IN WISCONSIN...


CITY           SKY/WX    TMP DP  RH WIND       PRES   REMARKS
MILWAUKEE      FAIR      40  26  57 W8        30.42S WCI  34
MADISON        FAIR      30  22  72 CALM      30.44R
GREEN BAY      FAIR      28  22  78 CALM      30.42R
EAU CLAIRE     FAIR      30  22  72 CALM      30.44R
BLACK RVR FLS  FAIR      19  19  98 CALM      30.45R
MEDFORD        FAIR      31  18  58 CALM      30.42R
WAUSAU         FAIR      31  22  69 NW7       30.41R WCI  24
WIS RAPIDS     FAIR      28  18  66 CALM      30.44R
MARSHFIELD     FAIR      31  17  56 NW7       30.41R WCI  24
RICE LAKE      FAIR      28  24  84 CALM      30.45S
$$

...NORTHEAST IOWA...


CITY           SKY/WX    TMP DP  RH WIND       PRES   REMARKS
WATERLOO       FAIR      26  22  84 CALM      30.47S
DUBUQUE        FAIR      30  22  72 CALM      30.45S
DECORAH        FAIR      30  23  74 CALM      30.45S
MASON CITY     CLOUDY    23  19  85 CALM      30.48R
CHARLES CITY   FAIR      30  25  80 NW3       30.47S
OELWEIN        FAIR      32  32 100 N3        30.47S
$$

...ELSEWHERE IN IOWA...


CITY           SKY/WX    TMP DP  RH WIND       PRES   REMARKS
DES MOINES     CLEAR     40  25  55 NE7       30.47R
IOWA CITY      FAIR      33  24  69 CALM      30.48R
FORT DODGE     CLOUDY    28  25  88 E3        30.47R
MARSHALLTOWN   CLOUDY    31  25  78 NE6       30.46R WCI  25
CEDAR RAPIDS   FAIR      32  24  72 N7        30.45R WCI  26
$$

...NORTHERN ILLINOIS...


CITY           SKY/WX    TMP DP  RH WIND       PRES   REMARKS
CHICAGO-OHARE  FAIR      39  23  52 W5        30.43S
CHICAGO-MIDWAY FAIR      39  24  55 CALM      30.44S
MOLINE         FAIR      30  25  81 E3        30.45S
ROCKFORD       FAIR      30  25  81 CALM      30.47R
PEORIA         FAIR      40  27  59 CALM      30.46R
$$

NOTE: "FAIR" INDICATES FEW OR NO CLOUDS BELOW 12,000 FEET WITH NO
SIGNIFICANT WEATHER AND/OR OBSTRUCTIONS TO VISIBILITY. WIND
SPEEDS ARE IN MILES-PER-HOUR.




USA.gov is the U.S. government's official web portal to all federal, state and local government web resources and services.